DLH1110 EDDF-LEST

Flight info

Callsign DLH1110
Flight time N/A
Altitude 36000
Route SOBRA2L/18 SOBRA Y180 DIK UN857 TOLVU DCT RAPOR DCT ESTOC DCT PON DCT DITAL DCT GODIX DCT DIDAK DCT KURIS DCT TERPO DCT ERIGA DCT AZFIC DCT LOTEE DCT MEGAT
Aircraft A320/M-SDE3FGHIRWY/LB1

Departure

Time 2026-05-06 14:49
Airport Frankfurt Main Airport (EDDF)

Arrival

Time N/A
Airport Santiago-Rosalía de Castro Airport (LEST)
Time Latitude Longitude Altitude Speed Heading
2026-05-06 14:12 50.05021 8.57529 356 ft 0 kts 26°
2026-05-06 14:14 50.05021 8.57528 356 ft 0 kts 26°
2026-05-06 14:15 50.05021 8.57529 356 ft 0 kts 26°
2026-05-06 14:15 50.05021 8.57528 356 ft 0 kts 26°
2026-05-06 14:28 50.05020 8.57528 356 ft 0 kts 26°
2026-05-06 14:28 50.05018 8.57526 356 ft 2 kts 25°
2026-05-06 14:28 50.05002 8.57517 356 ft 2 kts 15°
2026-05-06 14:29 50.04986 8.57513 364 ft 2 kts 358°
2026-05-06 14:29 50.04970 8.57517 356 ft 2 kts 343°
2026-05-06 14:29 50.04954 8.57519 358 ft 2 kts 39°
2026-05-06 14:29 50.04940 8.57504 360 ft 2 kts 87°
2026-05-06 14:30 50.04942 8.57479 365 ft 2 kts 123°
2026-05-06 14:30 50.04947 8.57466 361 ft 0 kts 112°
2026-05-06 14:36 50.04944 8.57476 358 ft 2 kts 112°
2026-05-06 14:36 50.04937 8.57502 361 ft 3 kts 110°
2026-05-06 14:37 50.04930 8.57539 359 ft 5 kts 108°
2026-05-06 14:37 50.04915 8.57594 359 ft 6 kts 116°
2026-05-06 14:37 50.04904 8.57626 356 ft 0 kts 121°
2026-05-06 14:38 50.04901 8.57637 363 ft 0 kts 113°
2026-05-06 14:38 50.04900 8.57640 362 ft 2 kts 113°
2026-05-06 14:38 50.04889 8.57682 358 ft 7 kts 113°
2026-05-06 14:38 50.04869 8.57755 364 ft 8 kts 112°
2026-05-06 14:39 50.04849 8.57830 359 ft 8 kts 114°
2026-05-06 14:39 50.04814 8.57897 361 ft 8 kts 145°
2026-05-06 14:39 50.04760 8.57924 359 ft 8 kts 176°
2026-05-06 14:39 50.04708 8.57888 362 ft 9 kts 231°
2026-05-06 14:40 50.04682 8.57792 363 ft 10 kts 249°
2026-05-06 14:40 50.04662 8.57709 362 ft 7 kts 248°
2026-05-06 14:40 50.04647 8.57645 358 ft 7 kts 250°
2026-05-06 14:40 50.04617 8.57520 358 ft 18 kts 249°
2026-05-06 14:41 50.04566 8.57304 360 ft 22 kts 250°
2026-05-06 14:41 50.04514 8.57087 359 ft 21 kts 250°
2026-05-06 14:41 50.04467 8.56890 362 ft 18 kts 249°
2026-05-06 14:41 50.04423 8.56711 361 ft 18 kts 249°
2026-05-06 14:42 50.04381 8.56530 364 ft 18 kts 250°
2026-05-06 14:42 50.04339 8.56354 359 ft 18 kts 249°
2026-05-06 14:42 50.04296 8.56173 361 ft 18 kts 249°
2026-05-06 14:42 50.04252 8.55989 361 ft 18 kts 249°
2026-05-06 14:43 50.04205 8.55798 359 ft 19 kts 248°
2026-05-06 14:43 50.04158 8.55602 354 ft 20 kts 250°
2026-05-06 14:43 50.04111 8.55402 356 ft 20 kts 249°
2026-05-06 14:43 50.04065 8.55210 359 ft 18 kts 249°
2026-05-06 14:44 50.04021 8.55025 359 ft 19 kts 249°
2026-05-06 14:44 50.03973 8.54829 358 ft 20 kts 250°
2026-05-06 14:44 50.03923 8.54616 356 ft 22 kts 249°
2026-05-06 14:45 50.03891 8.54479 355 ft 10 kts 249°
2026-05-06 14:45 50.03848 8.54339 353 ft 18 kts 236°
2026-05-06 14:45 50.03782 8.54148 350 ft 21 kts 251°
2026-05-06 14:45 50.03728 8.53923 349 ft 23 kts 249°
2026-05-06 14:46 50.03672 8.53689 349 ft 23 kts 250°
2026-05-06 14:46 50.03612 8.53450 339 ft 24 kts 250°
2026-05-06 14:46 50.03553 8.53203 338 ft 25 kts 250°
2026-05-06 14:46 50.03493 8.52951 337 ft 25 kts 249°
2026-05-06 14:47 50.03472 8.52872 332 ft 3 kts 247°
2026-05-06 14:47 50.03452 8.52798 335 ft 12 kts 248°
2026-05-06 14:47 50.03415 8.52652 334 ft 16 kts 245°
2026-05-06 14:47 50.03355 8.52593 335 ft 8 kts 183°
2026-05-06 14:48 50.03337 8.52594 335 ft 7 kts 179°
2026-05-06 14:48 50.03049 8.52592 335 ft 75 kts 179°
2026-05-06 14:48 50.02330 8.52602 333 ft 129 kts 179°
2026-05-06 14:48 50.01340 8.52609 499 ft 149 kts 184°
2026-05-06 14:49 50.00413 8.52595 1185 ft 141 kts 184°
2026-05-06 14:49 49.99317 8.52639 1599 ft 159 kts 181°
2026-05-06 14:49 49.98220 8.52737 2220 ft 159 kts 181°
2026-05-06 14:49 49.97054 8.52835 2560 ft 174 kts 181°
2026-05-06 14:50 49.95780 8.52931 2932 ft 192 kts 181°
2026-05-06 14:50 49.94390 8.53025 3326 ft 209 kts 180°
2026-05-06 14:50 49.92880 8.53125 3803 ft 227 kts 180°
2026-05-06 14:50 49.91292 8.53234 4838 ft 228 kts 180°
2026-05-06 14:51 49.89702 8.53339 5759 ft 229 kts 180°
2026-05-06 14:51 49.88097 8.53406 6585 ft 232 kts 185°
2026-05-06 14:51 49.86510 8.53015 7382 ft 233 kts 198°
2026-05-06 14:51 49.84964 8.52146 8112 ft 242 kts 202°
2026-05-06 14:52 49.83311 8.51184 8526 ft 264 kts 201°
2026-05-06 14:52 49.81545 8.50184 9172 ft 274 kts 201°
2026-05-06 14:52 49.79747 8.49176 9997 ft 278 kts 201°
2026-05-06 14:52 49.77953 8.47853 10379 ft 297 kts 218°
2026-05-06 14:53 49.76549 8.45382 10626 ft 318 kts 242°
2026-05-06 14:53 49.75914 8.42098 11132 ft 330 kts 265°
2026-05-06 14:53 49.76147 8.38556 11888 ft 335 kts 281°
2026-05-06 14:53 49.76745 8.35086 12638 ft 341 kts 285°
2026-05-06 14:54 49.77423 8.31538 13451 ft 344 kts 285°
2026-05-06 14:54 49.78077 8.27959 14119 ft 348 kts 284°
2026-05-06 14:54 49.78702 8.24314 14752 ft 352 kts 283°
2026-05-06 14:54 49.79308 8.20624 15393 ft 356 kts 282°
2026-05-06 14:55 49.79908 8.16885 16023 ft 360 kts 282°
2026-05-06 14:55 49.80484 8.13256 16604 ft 365 kts 282°
2026-05-06 14:55 49.81079 8.09498 17230 ft 368 kts 282°
2026-05-06 14:55 49.81684 8.05670 17826 ft 373 kts 282°
2026-05-06 14:56 49.82307 8.01733 18399 ft 376 kts 282°
2026-05-06 14:56 49.82918 7.97856 18970 ft 379 kts 282°
2026-05-06 14:56 49.83533 7.93940 19533 ft 381 kts 282°
2026-05-06 14:56 49.83958 7.91234 19916 ft 382 kts 282°
2026-05-06 14:57 49.84158 7.89950 20107 ft 383 kts 282°
2026-05-06 14:57 49.84789 7.85911 20651 ft 386 kts 282°
2026-05-06 14:57 49.85422 7.81847 21238 ft 388 kts 282°
2026-05-06 14:58 49.86056 7.77769 21800 ft 391 kts 282°
2026-05-06 14:58 49.86696 7.73669 22361 ft 393 kts 282°
2026-05-06 14:58 49.87350 7.69523 22897 ft 396 kts 282°
2026-05-06 14:58 49.87856 7.66275 23311 ft 398 kts 282°
2026-05-06 14:59 49.88505 7.62083 23760 ft 401 kts 282°
2026-05-06 14:59 49.89146 7.57926 24172 ft 403 kts 282°
2026-05-06 14:59 49.89801 7.53675 24581 ft 406 kts 282°
2026-05-06 14:59 49.90458 7.49395 24981 ft 409 kts 282°
2026-05-06 15:00 49.91118 7.45084 25395 ft 412 kts 281°
2026-05-06 15:00 49.91782 7.40742 25788 ft 414 kts 281°
2026-05-06 15:00 49.92449 7.36376 26194 ft 417 kts 281°
2026-05-06 15:00 49.93116 7.31990 26566 ft 419 kts 281°
2026-05-06 15:01 49.93787 7.27568 26951 ft 421 kts 281°
2026-05-06 15:01 49.94460 7.23116 27312 ft 424 kts 281°
2026-05-06 15:01 49.95134 7.18644 27658 ft 426 kts 280°
2026-05-06 15:01 49.95808 7.14162 28015 ft 428 kts 280°
2026-05-06 15:02 49.96488 7.09626 28341 ft 430 kts 280°
2026-05-06 15:02 49.97123 7.05376 28649 ft 432 kts 280°
2026-05-06 15:02 49.97801 7.00821 28958 ft 434 kts 280°
2026-05-06 15:02 49.98469 6.96261 29265 ft 436 kts 278°
2026-05-06 15:03 49.98951 6.91578 29559 ft 436 kts 273°
2026-05-06 15:03 49.99160 6.86878 29874 ft 436 kts 268°
2026-05-06 15:03 49.99106 6.82193 30138 ft 437 kts 264°
2026-05-06 15:03 49.98949 6.77437 30404 ft 439 kts 264°
2026-05-06 15:04 49.98804 6.72693 30650 ft 442 kts 265°
2026-05-06 15:04 49.98659 6.67908 30908 ft 443 kts 265°
2026-05-06 15:04 49.98510 6.63124 31218 ft 443 kts 263°
2026-05-06 15:04 49.98141 6.58418 31547 ft 441 kts 257°
2026-05-06 15:05 49.97442 6.53868 31860 ft 439 kts 251°
2026-05-06 15:05 49.96413 6.49406 32157 ft 437 kts 245°
2026-05-06 15:05 49.95186 6.45084 32461 ft 437 kts 244°
2026-05-06 15:05 49.93986 6.40817 32752 ft 437 kts 244°
2026-05-06 15:06 49.92758 6.36430 33060 ft 437 kts 244°
2026-05-06 15:06 49.91561 6.32160 33369 ft 437 kts 244°
2026-05-06 15:06 49.90342 6.27827 33664 ft 436 kts 244°
2026-05-06 15:06 49.89093 6.23531 33930 ft 436 kts 243°
2026-05-06 15:07 49.87845 6.19250 34164 ft 436 kts 244°
2026-05-06 15:07 49.86990 6.16451 34310 ft 435 kts 242°
2026-05-06 15:07 49.85137 6.11220 34593 ft 434 kts 237°
2026-05-06 15:07 49.83496 6.07291 34799 ft 434 kts 233°
2026-05-06 15:08 49.81740 6.03491 35018 ft 433 kts 233°
2026-05-06 15:08 49.80024 5.99748 35214 ft 433 kts 233°
2026-05-06 15:08 49.78282 5.95940 35408 ft 433 kts 233°
2026-05-06 15:08 49.76574 5.92130 35587 ft 434 kts 236°
2026-05-06 15:09 49.75019 5.88126 35772 ft 435 kts 240°
2026-05-06 15:09 49.72482 5.79633 35835 ft 435 kts 248°
2026-05-06 15:10 49.70445 5.70814 35853 ft 436 kts 248°
2026-05-06 15:10 49.68377 5.62035 35855 ft 436 kts 248°
2026-05-06 15:11 49.66654 5.54704 35848 ft 436 kts 248°
2026-05-06 15:11 49.64583 5.45893 35849 ft 436 kts 248°
2026-05-06 15:12 49.62511 5.37109 35852 ft 437 kts 248°
2026-05-06 15:12 49.60561 5.28212 35855 ft 437 kts 251°
2026-05-06 15:13 49.58824 5.19219 35858 ft 438 kts 254°
2026-05-06 15:13 49.57462 5.10133 35860 ft 439 kts 255°
2026-05-06 15:14 49.56149 5.01508 35865 ft 439 kts 255°
2026-05-06 15:14 49.54750 4.92356 35866 ft 439 kts 255°
2026-05-06 15:15 49.53344 4.83198 35870 ft 439 kts 255°
2026-05-06 15:15 49.51932 4.74048 35870 ft 439 kts 255°
2026-05-06 15:16 49.50508 4.64872 35873 ft 440 kts 255°
2026-05-06 15:16 49.49077 4.55702 35881 ft 441 kts 255°
2026-05-06 15:17 49.47637 4.46526 35885 ft 441 kts 255°
2026-05-06 15:17 49.46189 4.37347 35886 ft 442 kts 255°
2026-05-06 15:18 49.44776 4.28208 35884 ft 442 kts 256°
2026-05-06 15:18 49.43437 4.18933 35882 ft 447 kts 256°
2026-05-06 15:19 49.42064 4.09511 35885 ft 456 kts 256°
2026-05-06 15:19 49.40656 3.99988 35884 ft 462 kts 256°
2026-05-06 15:20 49.39240 3.90488 35884 ft 465 kts 256°
2026-05-06 15:20 49.37791 3.80829 35884 ft 465 kts 256°
2026-05-06 15:21 49.36337 3.71199 35889 ft 465 kts 256°
2026-05-06 15:21 49.34904 3.61759 35893 ft 465 kts 256°
2026-05-06 15:22 49.33428 3.52101 35893 ft 465 kts 256°
2026-05-06 15:22 49.31953 3.42502 35894 ft 465 kts 256°
2026-05-06 15:23 49.30459 3.32844 35892 ft 465 kts 256°
2026-05-06 15:23 49.29073 3.23926 35898 ft 465 kts 256°
2026-05-06 15:24 49.28828 3.22358 35894 ft 465 kts 256°
2026-05-06 15:24 49.27530 3.14062 35897 ft 465 kts 256°
2026-05-06 15:25 49.26056 3.04694 35899 ft 465 kts 256°
2026-05-06 15:25 49.24523 2.95003 35896 ft 465 kts 256°
2026-05-06 15:26 49.23146 2.86353 35901 ft 465 kts 256°
2026-05-06 15:26 49.21639 2.76934 35905 ft 465 kts 255°
2026-05-06 15:27 49.20106 2.67408 35904 ft 464 kts 255°
2026-05-06 15:27 49.18573 2.57939 35912 ft 465 kts 255°
2026-05-06 15:28 49.17024 2.48425 35912 ft 464 kts 255°
2026-05-06 15:28 49.15464 2.38890 35916 ft 464 kts 255°
2026-05-06 15:29 49.13890 2.29329 35938 ft 463 kts 255°
2026-05-06 15:29 49.12488 2.20856 35936 ft 464 kts 255°
2026-05-06 15:30 49.10951 2.11628 35940 ft 463 kts 255°
2026-05-06 15:30 49.09004 2.02242 35940 ft 463 kts 249°
2026-05-06 15:31 49.06466 1.93197 35943 ft 463 kts 245°
2026-05-06 15:31 49.03790 1.84297 35939 ft 464 kts 245°
2026-05-06 15:32 48.99819 1.71122 35930 ft 463 kts 245°
2026-05-06 15:32 48.97118 1.62232 35930 ft 465 kts 245°
2026-05-06 15:33 48.94409 1.53351 35930 ft 464 kts 245°
2026-05-06 15:33 48.91818 1.44885 35935 ft 464 kts 245°
2026-05-06 15:34 48.89106 1.36054 35934 ft 464 kts 245°
2026-05-06 15:34 48.86365 1.27157 35937 ft 465 kts 245°
2026-05-06 15:35 48.83614 1.18264 35936 ft 464 kts 245°
2026-05-06 15:35 48.80854 1.09370 35940 ft 465 kts 245°
2026-05-06 15:36 48.78104 1.00541 35939 ft 466 kts 245°
2026-05-06 15:36 48.75308 0.91677 35941 ft 466 kts 243°
2026-05-06 15:37 48.72123 0.83125 35940 ft 466 kts 238°
2026-05-06 15:37 48.68740 0.74801 35944 ft 466 kts 239°
2026-05-06 15:38 48.65356 0.66423 35947 ft 466 kts 239°
2026-05-06 15:38 48.61975 0.58109 35947 ft 466 kts 239°
2026-05-06 15:39 48.58567 0.49762 35951 ft 466 kts 239°
2026-05-06 15:39 48.55197 0.41535 35948 ft 466 kts 239°
2026-05-06 15:40 48.51837 0.33361 35949 ft 466 kts 239°
2026-05-06 15:40 48.48419 0.25068 35956 ft 466 kts 239°
2026-05-06 15:41 48.44984 0.16763 35957 ft 466 kts 239°
2026-05-06 15:41 48.41541 0.08464 35962 ft 466 kts 239°
2026-05-06 15:42 48.38098 0.00190 35969 ft 466 kts 239°
2026-05-06 15:42 48.34444 -0.07909 35974 ft 467 kts 234°
2026-05-06 15:43 48.30574 -0.15686 35968 ft 467 kts 234°
2026-05-06 15:43 48.26708 -0.23502 35967 ft 467 kts 234°
2026-05-06 15:44 48.22974 -0.30934 35968 ft 468 kts 233°
2026-05-06 15:44 48.19007 -0.38671 35969 ft 468 kts 233°
2026-05-06 15:45 48.15071 -0.46341 35967 ft 467 kts 233°
2026-05-06 15:45 48.11107 -0.54061 35966 ft 467 kts 233°
2026-05-06 15:46 48.07140 -0.61765 35963 ft 467 kts 233°
2026-05-06 15:46 48.03167 -0.69462 35964 ft 467 kts 233°
2026-05-06 15:47 47.99189 -0.77143 35968 ft 467 kts 233°
2026-05-06 15:47 47.95205 -0.84816 35965 ft 467 kts 233°
2026-05-06 15:48 47.91218 -0.92472 35965 ft 467 kts 233°
2026-05-06 15:48 47.87172 -0.99965 35967 ft 467 kts 230°
2026-05-06 15:49 47.82883 -1.07233 35967 ft 468 kts 230°
2026-05-06 15:49 47.78591 -1.14520 35973 ft 467 kts 230°
2026-05-06 15:50 47.74298 -1.21809 35975 ft 468 kts 230°
2026-05-06 15:50 47.70046 -1.29021 35964 ft 467 kts 230°
2026-05-06 15:51 47.65732 -1.36323 35959 ft 467 kts 230°
2026-05-06 15:51 47.61462 -1.43522 35955 ft 467 kts 230°
2026-05-06 15:52 47.57294 -1.50524 35951 ft 468 kts 230°
2026-05-06 15:52 47.52984 -1.57743 35961 ft 467 kts 230°
2026-05-06 15:53 47.48674 -1.64942 35959 ft 467 kts 230°
2026-05-06 15:53 47.44359 -1.72130 35953 ft 468 kts 230°
2026-05-06 15:54 47.40034 -1.79316 35966 ft 468 kts 230°
2026-05-06 15:54 47.35711 -1.86480 35963 ft 467 kts 230°
2026-05-06 15:55 47.31409 -1.93592 35970 ft 468 kts 230°
2026-05-06 15:55 47.27065 -2.00756 35956 ft 467 kts 230°
2026-05-06 15:56 47.22748 -2.07854 35966 ft 468 kts 230°
2026-05-06 15:56 47.18406 -2.14974 35962 ft 468 kts 230°
2026-05-06 15:57 47.14057 -2.22085 35967 ft 468 kts 229°
2026-05-06 15:57 47.09699 -2.29191 35961 ft 468 kts 229°
2026-05-06 15:58 47.05338 -2.36287 35970 ft 468 kts 229°
2026-05-06 15:58 47.01000 -2.43324 35966 ft 468 kts 229°
2026-05-06 15:59 46.96628 -2.50396 35974 ft 468 kts 229°
2026-05-06 15:59 46.92985 -2.56278 35973 ft 468 kts 229°
2026-05-06 16:00 46.88603 -2.63333 35973 ft 469 kts 229°
2026-05-06 16:00 46.84205 -2.70396 35976 ft 469 kts 229°
2026-05-06 16:01 46.79812 -2.77434 35976 ft 469 kts 229°
2026-05-06 16:01 46.75412 -2.84463 35979 ft 469 kts 229°
2026-05-06 16:02 46.71026 -2.91451 35982 ft 469 kts 229°
2026-05-06 16:02 46.66611 -2.98468 35981 ft 469 kts 229°
2026-05-06 16:03 46.62391 -3.05159 35982 ft 469 kts 229°
2026-05-06 16:03 46.58148 -3.11868 35983 ft 469 kts 229°
2026-05-06 16:04 46.53714 -3.18861 35984 ft 469 kts 229°
2026-05-06 16:04 46.49290 -3.25820 35985 ft 469 kts 229°
2026-05-06 16:05 46.44863 -3.32769 35988 ft 469 kts 229°
2026-05-06 16:05 46.40431 -3.39705 35984 ft 469 kts 229°
2026-05-06 16:06 46.36066 -3.46520 35989 ft 469 kts 229°
2026-05-06 16:06 46.31624 -3.53438 35992 ft 469 kts 229°
2026-05-06 16:07 46.27377 -3.60034 35995 ft 469 kts 229°
2026-05-06 16:07 46.23015 -3.66795 35992 ft 469 kts 229°
2026-05-06 16:08 46.18555 -3.73690 35996 ft 468 kts 229°
2026-05-06 16:08 46.14108 -3.80545 35994 ft 468 kts 229°
2026-05-06 16:09 46.09667 -3.87376 35999 ft 468 kts 228°
2026-05-06 16:09 46.05217 -3.94201 35998 ft 467 kts 228°
2026-05-06 16:10 46.00752 -4.01033 36001 ft 467 kts 228°
2026-05-06 16:10 45.96572 -4.07413 36006 ft 467 kts 228°
2026-05-06 16:11 45.92137 -4.14166 36003 ft 467 kts 228°
2026-05-06 16:11 45.87673 -4.20946 36006 ft 466 kts 228°
2026-05-06 16:12 45.83203 -4.27718 36003 ft 466 kts 228°
2026-05-06 16:12 45.78722 -4.34490 36008 ft 466 kts 228°
2026-05-06 16:13 45.74250 -4.41232 36009 ft 466 kts 228°
2026-05-06 16:13 45.69812 -4.47906 36012 ft 466 kts 228°
2026-05-06 16:14 45.65375 -4.54560 36013 ft 466 kts 228°
2026-05-06 16:14 45.60996 -4.61113 36010 ft 466 kts 228°
2026-05-06 16:15 45.56492 -4.67838 36013 ft 466 kts 227°
2026-05-06 16:15 45.52005 -4.74519 36018 ft 466 kts 227°
2026-05-06 16:16 45.47522 -4.81177 36013 ft 466 kts 227°
2026-05-06 16:16 45.43035 -4.87826 36015 ft 465 kts 227°
2026-05-06 16:17 45.38535 -4.94477 36013 ft 466 kts 227°
2026-05-06 16:17 45.34063 -5.01071 36017 ft 466 kts 227°
2026-05-06 16:18 45.29553 -5.07704 36016 ft 466 kts 227°
2026-05-06 16:18 45.25065 -5.14290 36021 ft 465 kts 227°
2026-05-06 16:19 45.20557 -5.20889 36018 ft 466 kts 227°
2026-05-06 16:19 45.16042 -5.27481 36014 ft 466 kts 227°
2026-05-06 16:20 45.11527 -5.34058 36013 ft 466 kts 227°
2026-05-06 16:20 45.07026 -5.40598 36019 ft 466 kts 227°
2026-05-06 16:21 45.02501 -5.47159 36023 ft 466 kts 227°
2026-05-06 16:21 44.97975 -5.53704 36020 ft 466 kts 227°
2026-05-06 16:22 44.93428 -5.60264 36018 ft 466 kts 227°
2026-05-06 16:22 44.88917 -5.66756 36016 ft 466 kts 227°
2026-05-06 16:23 44.84368 -5.73288 36014 ft 467 kts 227°
2026-05-06 16:23 44.79817 -5.79806 36015 ft 466 kts 227°
2026-05-06 16:24 44.75377 -5.86150 36021 ft 467 kts 227°
2026-05-06 16:24 44.70817 -5.92651 36010 ft 466 kts 227°
2026-05-06 16:25 44.66483 -5.98813 36003 ft 467 kts 227°
2026-05-06 16:25 44.61933 -6.05270 36003 ft 467 kts 227°
2026-05-06 16:26 44.57346 -6.11762 36014 ft 467 kts 227°
2026-05-06 16:26 44.52785 -6.18204 36020 ft 467 kts 227°
2026-05-06 16:27 44.48194 -6.24672 36012 ft 467 kts 227°
2026-05-06 16:27 44.43620 -6.31101 36011 ft 467 kts 227°
2026-05-06 16:28 44.39032 -6.37535 36010 ft 467 kts 227°
2026-05-06 16:28 44.34441 -6.43957 36011 ft 467 kts 227°
2026-05-06 16:29 44.29847 -6.50369 36010 ft 467 kts 227°
2026-05-06 16:29 44.25266 -6.56749 36012 ft 467 kts 227°
2026-05-06 16:30 44.21499 -6.61983 36011 ft 467 kts 227°
2026-05-06 16:30 44.16150 -6.69399 36012 ft 467 kts 227°
2026-05-06 16:31 44.11603 -6.75686 36012 ft 467 kts 227°
2026-05-06 16:31 44.06981 -6.82063 36015 ft 467 kts 227°
2026-05-06 16:32 44.02393 -6.88378 36010 ft 467 kts 227°
2026-05-06 16:32 43.97791 -6.94691 36011 ft 466 kts 227°
2026-05-06 16:33 43.93183 -7.01002 36008 ft 467 kts 227°
2026-05-06 16:34 43.86236 -7.10495 36016 ft 467 kts 227°
2026-05-06 16:34 43.81707 -7.16665 36015 ft 467 kts 227°
2026-05-06 16:35 43.77098 -7.22931 36016 ft 467 kts 227°
2026-05-06 16:35 43.72450 -7.29236 36009 ft 467 kts 227°
2026-05-06 16:36 43.67811 -7.35513 36015 ft 467 kts 227°
2026-05-06 16:36 43.63392 -7.41479 36014 ft 466 kts 227°
2026-05-06 16:37 43.58777 -7.47695 36015 ft 466 kts 227°
2026-05-06 16:37 43.54146 -7.53920 36015 ft 466 kts 227°
2026-05-06 16:38 43.49602 -7.59914 36014 ft 467 kts 225°
2026-05-06 16:38 43.44638 -7.65702 36019 ft 468 kts 223°
2026-05-06 16:39 43.39658 -7.71469 36014 ft 468 kts 223°